When you browse on this site, cookies collect data to enhance your experience and personalize the content and advertising you see.
Visit our Privacy Policy to learn more. By continuing to use the site, you agree to this use of cookies and data.
  • In Österreich
  • Länderverzeichnis
  • Für 7 Tage
  • Wassertemperatur
  • Wetterkarte
  • News
  • Widgets
  • user-avatar
    Anmelden

    Stündliche Wetter Semmering

    Heute, 10 April, Freitag

    Zeit Temperatur Niederschläge Wind Luftdruck Luftfeuchtigkeit
    00:00 +7°C° 0 mm 1 m/S 667 mmHg 70%
    01:00 +6°C° 0 mm 1 m/S 667 mmHg 70%
    02:00 +6°C° 0 mm 1 m/S 667 mmHg 72%
    03:00 +6°C° 0 mm 1 m/S 667 mmHg 73%
    04:00 +5°C° 0 mm 1 m/S 667 mmHg 75%
    05:00 +6°C° 0 mm 1 m/S 668 mmHg 74%
    06:00 +7°C° 0 mm 1 m/S 668 mmHg 73%
    07:00 +8°C° 0 mm 1 m/S 669 mmHg 73%
    08:00 +10°C° 0 mm 1 m/S 669 mmHg 66%
    09:00 +12°C° 0 mm 1 m/S 670 mmHg 59%
    10:00 +14°C° 0 mm 1 m/S 670 mmHg 52%
    11:00 +14°C° 0 mm 1 m/S 670 mmHg 51%
    12:00 +14°C° 0 mm 1 m/S 670 mmHg 50%
    13:00 +14°C° 0 mm 2 m/S 670 mmHg 50%
    14:00 +14°C° 0.1 mm 1 m/S 669 mmHg 52%
    15:00 +14°C° 0.1 mm 1 m/S 669 mmHg 55%
    16:00 +13°C° 0.1 mm 1 m/S 668 mmHg 57%
    17:00 +11°C° 0 mm 1 m/S 668 mmHg 66%
    18:00 +10°C° 0 mm 1 m/S 667 mmHg 75%
    19:00 +7°C° 0 mm 0 m/S 667 mmHg 84%
    20:00 +6°C° 0 mm 0 m/S 667 mmHg 85%
    21:00 +6°C° 0 mm 0 m/S 667 mmHg 87%
    22:00 +5°C° 0 mm 0 m/S 667 mmHg 88%
    23:00 +5°C° 0 mm 0 m/S 667 mmHg 89%

    Morgen, 11 April, Samstag

    Zeit Temperatur Niederschläge Wind Luftdruck Luftfeuchtigkeit
    00:00 +5°C° 0 mm 0 m/S 667 mmHg 89%
    01:00 +6°C° 0 mm 1 m/S 667 mmHg 89%
    02:00 +5°C° 0 mm 0 m/S 667 mmHg 89%
    03:00 +5°C° 0 mm 0 m/S 667 mmHg 88%
    04:00 +5°C° 0 mm 0 m/S 667 mmHg 88%
    05:00 +5°C° 0.1 mm 0 m/S 668 mmHg 86%
    06:00 +6°C° 0.1 mm 0 m/S 668 mmHg 84%
    07:00 +7°C° 0.1 mm 0 m/S 668 mmHg 83%
    08:00 +8°C° 0.1 mm 0 m/S 669 mmHg 76%
    09:00 +10°C° 0.1 mm 1 m/S 669 mmHg 70%
    10:00 +12°C° 0.1 mm 1 m/S 670 mmHg 64%
    11:00 +12°C° 0.2 mm 1 m/S 669 mmHg 63%
    12:00 +12°C° 0.2 mm 1 m/S 669 mmHg 62%
    13:00 +12°C° 0.2 mm 2 m/S 669 mmHg 61%
    14:00 +12°C° 0.2 mm 1 m/S 669 mmHg 63%
    15:00 +12°C° 0.2 mm 1 m/S 668 mmHg 66%
    16:00 +11°C° 0.2 mm 1 m/S 668 mmHg 68%
    17:00 +10°C° 0.1 mm 1 m/S 668 mmHg 74%
    18:00 +8°C° 0.1 mm 1 m/S 667 mmHg 79%
    19:00 +6°C° 0.1 mm 0 m/S 667 mmHg 85%
    20:00 +6°C° 0 mm 0 m/S 667 mmHg 85%
    21:00 +5°C° 0 mm 0 m/S 667 mmHg 86%
    22:00 +6°C° 0 mm 1 m/S 668 mmHg 87%
    23:00 +6°C° 0 mm 1 m/S 667 mmHg 88%

    übermorgen, 12 April, Sonntag

    Zeit Temperatur Niederschläge Wind Luftdruck Luftfeuchtigkeit
    00:00 +6°C° 0 mm 1 m/S 667 mmHg 89%
    01:00 +6°C° 0 mm 1 m/S 667 mmHg 89%
    02:00 +5°C° 0 mm 1 m/S 667 mmHg 90%
    03:00 +5°C° 0 mm 1 m/S 666 mmHg 91%
    04:00 +4°C° 0 mm 1 m/S 666 mmHg 92%
    05:00 +5°C° 0 mm 1 m/S 666 mmHg 89%
    06:00 +6°C° 0 mm 1 m/S 666 mmHg 86%
    07:00 +7°C° 0 mm 1 m/S 667 mmHg 83%
    08:00 +9°C° 0 mm 1 m/S 667 mmHg 75%
    09:00 +11°C° 0 mm 1 m/S 667 mmHg 67%
    10:00 +14°C° 0 mm 1 m/S 667 mmHg 59%
    11:00 +14°C° 0.1 mm 2 m/S 667 mmHg 58%
    12:00 +15°C° 0.1 mm 2 m/S 667 mmHg 56%
    13:00 +15°C° 0.1 mm 2 m/S 666 mmHg 55%
    14:00 +15°C° 0.5 mm 2 m/S 666 mmHg 59%
    15:00 +14°C° 0.5 mm 2 m/S 665 mmHg 62%
    16:00 +14°C° 0.5 mm 2 m/S 664 mmHg 65%
    17:00 +12°C° 0.3 mm 2 m/S 663 mmHg 71%
    18:00 +10°C° 0.3 mm 2 m/S 663 mmHg 77%
    19:00 +9°C° 0.3 mm 1 m/S 662 mmHg 83%
    20:00 +8°C° 0 mm 1 m/S 662 mmHg 85%
    21:00 +8°C° 0 mm 1 m/S 661 mmHg 86%
    22:00 +7°C° 0 mm 1 m/S 661 mmHg 88%
    23:00 +7°C° 0 mm 1 m/S 661 mmHg 86%

    13 April, Montag

    Zeit Temperatur Niederschläge Wind Luftdruck Luftfeuchtigkeit
    00:00 +7°C° 0 mm 1 m/S 661 mmHg 85%
    01:00 +6°C° 0 mm 1 m/S 660 mmHg 84%
    02:00 +6°C° 0 mm 1 m/S 660 mmHg 85%
    03:00 +6°C° 0 mm 1 m/S 660 mmHg 86%
    04:00 +6°C° 0 mm 1 m/S 660 mmHg 87%
    05:00 +7°C° 0 mm 1 m/S 660 mmHg 85%
    06:00 +8°C° 0 mm 1 m/S 660 mmHg 83%
    07:00 +9°C° 0 mm 1 m/S 661 mmHg 81%
    08:00 +11°C° 0.1 mm 1 m/S 661 mmHg 71%
    09:00 +13°C° 0.1 mm 1 m/S 661 mmHg 62%
    10:00 +15°C° 0.1 mm 1 m/S 662 mmHg 52%
    11:00 +14°C° 0.5 mm 1 m/S 661 mmHg 54%
    12:00 +14°C° 0.5 mm 1 m/S 661 mmHg 55%
    13:00 +14°C° 0.5 mm 1 m/S 661 mmHg 57%
    14:00 +13°C° 0.9 mm 2 m/S 660 mmHg 65%
    15:00 +12°C° 0.9 mm 2 m/S 659 mmHg 73%
    16:00 +9°C° 0.9 mm 2 m/S 659 mmHg 80%
    17:00 +8°C° 0.3 mm 2 m/S 658 mmHg 83%
    18:00 +7°C° 0.3 mm 2 m/S 658 mmHg 85%
    19:00 +8°C° 0.3 mm 1 m/S 658 mmHg 87%
    20:00 +7°C° 0 mm 1 m/S 658 mmHg 87%
    21:00 +6°C° 0 mm 2 m/S 658 mmHg 86%
    22:00 +6°C° 0 mm 2 m/S 658 mmHg 85%
    23:00 +6°C° 0.3 mm 2 m/S 658 mmHg 87%

    14 April, Dienstag

    Zeit Temperatur Niederschläge Wind Luftdruck Luftfeuchtigkeit
    00:00 +6°C° 0.3 mm 2 m/S 658 mmHg 88%
    01:00 +6°C° 0.3 mm 2 m/S 658 mmHg 90%
    02:00 +4°C° 1.1 mm 2 m/S 658 mmHg 91%
    03:00 +2°C° 1.1 mm 3 m/S 658 mmHg 93%
    04:00 +1°C° 1.1 mm 3 m/S 658 mmHg 94%
    05:00 0°C° 0.6 mm 3 m/S 658 mmHg 93%
    06:00 -1°C° 0.6 mm 4 m/S 658 mmHg 92%
    07:00 -2°C° 0.6 mm 4 m/S 658 mmHg 90%
    08:00 -2°C° 0 mm 4 m/S 659 mmHg 81%
    09:00 -1°C° 0 mm 4 m/S 660 mmHg 71%
    10:00 -1°C° 0 mm 4 m/S 661 mmHg 61%
    11:00 0°C° 0 mm 4 m/S 661 mmHg 56%
    12:00 +1°C° 0 mm 4 m/S 662 mmHg 51%
    13:00 +3°C° 0 mm 4 m/S 662 mmHg 46%
    14:00 +3°C° 0 mm 4 m/S 662 mmHg 45%
    15:00 +3°C° 0 mm 3 m/S 662 mmHg 44%
    16:00 +3°C° 0 mm 3 m/S 662 mmHg 43%
    17:00 +2°C° 0 mm 2 m/S 662 mmHg 49%
    18:00 -1°C° 0 mm 2 m/S 661 mmHg 56%
    19:00 -1°C° 0 mm 1 m/S 661 mmHg 63%
    20:00 -1°C° 0 mm 1 m/S 661 mmHg 64%
    21:00 -2°C° 0 mm 1 m/S 662 mmHg 65%
    22:00 -2°C° 0 mm 1 m/S 662 mmHg 67%
    23:00 -2°C° 0 mm 1 m/S 662 mmHg 68%

    15 April, Mittwoch

    Zeit Temperatur Niederschläge Wind Luftdruck Luftfeuchtigkeit
    00:00 -3°C° 0 mm 1 m/S 662 mmHg 69%
    01:00 -3°C° 0 mm 1 m/S 662 mmHg 70%
    02:00 -3°C° 0 mm 1 m/S 661 mmHg 69%
    03:00 -3°C° 0 mm 1 m/S 661 mmHg 68%
    04:00 -3°C° 0 mm 1 m/S 661 mmHg 68%
    05:00 -2°C° 0 mm 1 m/S 661 mmHg 62%
    06:00 -1°C° 0 mm 1 m/S 662 mmHg 56%
    07:00 -1°C° 0 mm 2 m/S 662 mmHg 50%
    08:00 +1°C° 0 mm 2 m/S 663 mmHg 45%
    09:00 +3°C° 0 mm 2 m/S 663 mmHg 41%
    10:00 +4°C° 0 mm 3 m/S 663 mmHg 37%
    11:00 +5°C° 0 mm 3 m/S 663 mmHg 36%
    12:00 +7°C° 0 mm 3 m/S 663 mmHg 36%
    13:00 +7°C° 0 mm 3 m/S 664 mmHg 35%
    14:00 +7°C° 0 mm 3 m/S 663 mmHg 37%
    15:00 +7°C° 0 mm 3 m/S 663 mmHg 38%
    16:00 +7°C° 0 mm 3 m/S 663 mmHg 40%
    17:00 +5°C° 0 mm 2 m/S 662 mmHg 48%
    18:00 +3°C° 0 mm 2 m/S 662 mmHg 57%
    19:00 +2°C° 0 mm 1 m/S 662 mmHg 66%
    20:00 +1°C° 0 mm 1 m/S 662 mmHg 68%
    21:00 0°C° 0 mm 1 m/S 662 mmHg 70%
    22:00 0°C° 0 mm 1 m/S 662 mmHg 73%
    23:00 -1°C° 0 mm 1 m/S 662 mmHg 74%
    Mehr zeigen